Albert Lea, MN

12:10 AM CDT on September 22, 2017 (GMT -0500)
Albert Lea Municipal

Weather History for KAEL - March, 2014

Change the Weather History Date:

Saturday, March 29, 2014

  Actual Average Record
Temperature  
Mean Temperature 34 °F -  
Max Temperature 44 °F 45 °F 69 °F (1998)
Min Temperature 24 °F 29 °F 21 °F (2009)
Degree Days  
Heating Degree Days 31    
Moisture  
Dew Point 22 °F    
Average Humidity 62    
Maximum Humidity 86    
Minimum Humidity 36    
Precipitation  
Precipitation 0.00 in - - ()
Sea Level Pressure  
Sea Level Pressure 30.20 in    
Wind  
Wind Speed 4 mph (South)    
Max Wind Speed 13 mph    
Max Gust Speed 16 mph    
Visibility 10 miles    
Events      
Averages and records for this station are not official NWS values.
T = Trace of Precipitation, MM = Missing Value Source: NWS Daily Summary

Daily Weather History Graph

Daily Weather History Graph

Search for Another Location

Airport or City:

Trip Planner

Search our weather history database for the weather conditions in past years. The results will help you decide how hot, cold, wet, or windy it might be!

Date:

Astronomy

Mar. 29, 2014 Rise Set
Actual Time 7:00 AM CDT 7:36 PM CDT
Civil Twilight 6:31 AM CDT 8:05 PM CDT
Nautical Twilight 5:57 AM CDT 8:39 PM CDT
Astronomical Twilight 5:22 AM CDT 9:15 PM CDT
Moon 6:11 AM CDT (3/29) 6:41 PM CDT (3/29)
Length of Visible Light 13h 34m
Length of Day
12h 36m
Waning Crescent, 2% of the Moon is Illuminated
Mar 29
Waning Crescent
Mar 30
New
Apr 7
First Quarter
Apr 15
Full
Apr 22
Last Quarter

Hourly Weather History & Observations

Time (CDT) Temp. Windchill Dew Point Humidity Pressure Visibility Wind Dir Wind Speed Gust Speed Precip Events Conditions
12:09 AM 30.2 °F 24.3 °F 24.8 °F 80% 30.21 in 10.0 mi NNW 5.8 mph - N/A   Overcast
12:30 AM 30.2 °F 24.3 °F 24.8 °F 80% 30.22 in 10.0 mi NNW 5.8 mph - N/A   Mostly Cloudy
12:49 AM 30.2 °F 25.4 °F 23.0 °F 75% 30.22 in 10.0 mi NNW 4.6 mph - N/A   Scattered Clouds
1:10 AM 30.2 °F 24.3 °F 23.0 °F 75% 30.22 in 10.0 mi NNW 5.8 mph - N/A   Clear
1:29 AM 28.4 °F 22.2 °F 23.0 °F 80% 30.22 in 10.0 mi NNW 5.8 mph - N/A   Clear
1:50 AM 28.4 °F 23.3 °F 23.0 °F 80% 30.22 in 10.0 mi NNW 4.6 mph - N/A   Clear
2:09 AM 28.4 °F 23.3 °F 23.0 °F 80% 30.22 in 10.0 mi North 4.6 mph - N/A   Clear
2:30 AM 26.6 °F 22.6 °F 23.0 °F 86% 30.22 in 10.0 mi North 3.5 mph - N/A   Clear
2:50 AM 26.6 °F - 23.0 °F 86% 30.22 in 10.0 mi Calm Calm - N/A   Clear
3:10 AM 26.6 °F 22.6 °F 21.2 °F 80% 30.23 in 10.0 mi North 3.5 mph - N/A   Clear
3:30 AM 26.6 °F - 21.2 °F 80% 30.23 in 10.0 mi Calm Calm - N/A   Clear
3:49 AM 26.6 °F 22.6 °F 21.2 °F 80% 30.23 in 10.0 mi NNW 3.5 mph - N/A   Clear
4:10 AM 26.6 °F 22.6 °F 21.2 °F 80% 30.23 in 10.0 mi NNW 3.5 mph - N/A   Clear
4:29 AM 26.6 °F 22.6 °F 21.2 °F 80% 30.23 in 10.0 mi NNW 3.5 mph - N/A   Clear
4:50 AM 26.6 °F 22.6 °F 21.2 °F 80% 30.23 in 10.0 mi NNW 3.5 mph - N/A   Clear
5:10 AM 26.6 °F 21.2 °F 21.2 °F 80% 30.23 in 10.0 mi NNW 4.6 mph - N/A   Clear
5:29 AM 24.8 °F - 21.2 °F 86% 30.23 in 10.0 mi Calm Calm - N/A   Clear
5:50 AM 26.6 °F - 19.4 °F 74% 30.24 in 10.0 mi Calm Calm - N/A   Clear
6:10 AM 24.8 °F - 19.4 °F 80% 30.24 in 10.0 mi Calm Calm - N/A   Clear
6:30 AM 24.8 °F - 19.4 °F 80% 30.24 in 10.0 mi Calm Calm - N/A   Clear
6:50 AM 24.8 °F - 19.4 °F 80% 30.25 in 10.0 mi Calm Calm - N/A   Clear
7:09 AM 24.8 °F - 19.4 °F 80% 30.25 in 10.0 mi Calm Calm - N/A   Clear
7:30 AM 26.6 °F - 19.4 °F 74% 30.25 in 10.0 mi Calm Calm - N/A   Clear
7:50 AM 26.6 °F - 21.2 °F 80% 30.26 in 10.0 mi Calm Calm - N/A   Clear
8:09 AM 28.4 °F - 21.2 °F 74% 30.25 in 10.0 mi Calm Calm - N/A   Clear
8:30 AM 28.4 °F 23.3 °F 21.2 °F 74% 30.25 in 10.0 mi NNW 4.6 mph - N/A   Clear
8:50 AM 30.2 °F 26.7 °F 21.2 °F 69% 30.25 in 10.0 mi North 3.5 mph - N/A   Clear
9:09 AM 30.2 °F - 21.2 °F 69% 30.25 in 10.0 mi Calm Calm - N/A   Clear
9:30 AM 32.0 °F - 21.2 °F 64% 30.25 in 10.0 mi Calm Calm - N/A   Clear
9:50 AM 33.8 °F - 19.4 °F 56% 30.26 in 10.0 mi Calm Calm - N/A   Clear
10:10 AM 35.6 °F - 17.6 °F 48% 30.26 in 10.0 mi Calm Calm - N/A   Clear
10:29 AM 35.6 °F 32.8 °F 12.2 °F 38% 30.26 in 10.0 mi East 3.5 mph - N/A   Clear
10:50 AM 35.6 °F 32.8 °F 15.8 °F 44% 30.26 in 10.0 mi East 3.5 mph - N/A   Clear
11:10 AM 35.6 °F - 12.2 °F 38% 30.27 in 10.0 mi Calm Calm - N/A   Clear
11:29 AM 37.4 °F 34.9 °F 17.6 °F 45% 30.27 in 10.0 mi NW 3.5 mph - N/A   Clear
11:50 AM 37.4 °F - 12.2 °F 36% 30.26 in 10.0 mi Calm Calm - N/A   Clear
12:10 PM 37.4 °F - 12.2 °F 36% 30.25 in 10.0 mi Calm Calm - N/A   Clear
12:30 PM 39.2 °F - 14.0 °F 36% 30.25 in 10.0 mi Calm Calm - N/A   Clear
12:50 PM 39.2 °F - 14.0 °F 36% 30.24 in 10.0 mi Calm Calm - N/A   Clear
1:10 PM 39.2 °F 35.9 °F 15.8 °F 39% 30.24 in 10.0 mi SW 4.6 mph - N/A   Clear
1:30 PM 39.2 °F 35.0 °F 17.6 °F 42% 30.22 in 10.0 mi SW 5.8 mph - N/A   Clear
1:50 PM 41.0 °F 39.0 °F 17.6 °F 39% 30.21 in 10.0 mi WSW 3.5 mph - N/A   Clear
2:09 PM 41.0 °F 38.0 °F 15.8 °F 36% 30.21 in 10.0 mi SSE 4.6 mph - N/A   Clear
2:30 PM 42.8 °F 41.1 °F 17.6 °F 36% 30.20 in 10.0 mi WSW 3.5 mph - N/A   Clear
2:50 PM 42.8 °F 41.1 °F 19.4 °F 39% 30.20 in 10.0 mi SE 3.5 mph - N/A   Clear
3:09 PM 42.8 °F 38.6 °F 19.4 °F 39% 30.20 in 10.0 mi SW 6.9 mph - N/A   Clear
3:30 PM 42.8 °F 38.6 °F 19.4 °F 39% 30.18 in 10.0 mi SSW 6.9 mph - N/A   Clear
3:50 PM 44.6 °F 42.2 °F 19.4 °F 37% 30.18 in 10.0 mi South 4.6 mph - N/A   Clear
4:09 PM 44.6 °F 40.2 °F 21.2 °F 39% 30.17 in 10.0 mi SSW 8.1 mph - N/A   Clear
4:30 PM 44.6 °F 39.7 °F 21.2 °F 39% 30.17 in 10.0 mi SSW 9.2 mph - N/A   Clear
4:49 PM 44.6 °F 40.7 °F 21.2 °F 39% 30.16 in 10.0 mi South 6.9 mph - N/A   Clear
5:10 PM 44.6 °F 40.7 °F 24.8 °F 46% 30.15 in 10.0 mi SSE 6.9 mph - N/A   Clear
5:30 PM 44.6 °F 39.2 °F 24.8 °F 46% 30.14 in 10.0 mi SSE 10.4 mph - N/A   Clear
5:50 PM 44.6 °F 40.2 °F 24.8 °F 46% 30.14 in 10.0 mi South 8.1 mph - N/A   Clear
6:10 PM 44.6 °F 39.2 °F 24.8 °F 46% 30.14 in 10.0 mi SSE 10.4 mph - N/A   Clear
6:29 PM 44.6 °F 40.2 °F 24.8 °F 46% 30.13 in 10.0 mi South 8.1 mph - N/A   Clear
6:50 PM 42.8 °F 36.6 °F 26.6 °F 53% 30.13 in 10.0 mi SSE 11.5 mph 16.1 mph N/A   Clear
7:10 PM 42.8 °F 37.5 °F 26.6 °F 53% 30.13 in 10.0 mi SSE 9.2 mph - N/A   Clear
7:29 PM 41.0 °F 36.4 °F 28.4 °F 61% 30.13 in 10.0 mi South 6.9 mph - N/A   Clear
7:50 PM 39.2 °F 33.6 °F 28.4 °F 65% 30.12 in 10.0 mi SSE 8.1 mph - N/A   Clear
8:10 PM 37.4 °F 32.1 °F 28.4 °F 70% 30.12 in 10.0 mi SSE 6.9 mph - N/A   Clear
8:30 PM 37.4 °F 31.4 °F 28.4 °F 70% 30.11 in 10.0 mi SSE 8.1 mph - N/A   Clear
8:50 PM 37.4 °F 30.3 °F 28.4 °F 70% 30.11 in 10.0 mi SSE 10.4 mph - N/A   Clear
9:09 PM 37.4 °F 30.8 °F 28.4 °F 70% 30.11 in 10.0 mi SSE 9.2 mph - N/A   Clear
9:30 PM 37.4 °F 30.3 °F 28.4 °F 70% 30.10 in 10.0 mi South 10.4 mph - N/A   Clear
9:49 PM 37.4 °F 30.3 °F 28.4 °F 70% 30.11 in 10.0 mi South 10.4 mph - N/A   Clear
10:10 PM 37.4 °F 30.3 °F 30.2 °F 75% 30.11 in 10.0 mi South 10.4 mph - N/A   Clear
10:30 PM 37.4 °F 30.3 °F 30.2 °F 75% 30.11 in 10.0 mi SSE 10.4 mph - N/A   Clear
10:50 PM 37.4 °F 30.3 °F 30.2 °F 75% 30.09 in 10.0 mi SSE 10.4 mph - N/A   Clear
11:10 PM 37.4 °F 29.3 °F 30.2 °F 75% 30.09 in 10.0 mi SSE 12.7 mph - N/A   Clear
11:29 PM 37.4 °F 30.8 °F 30.2 °F 75% 30.09 in 10.0 mi South 9.2 mph - N/A   Clear
11:50 PM 37.4 °F 30.3 °F 30.2 °F 75% 30.09 in 10.0 mi SSE 10.4 mph - N/A   Clear